Orbital Elements at Epoch 2459200.5 (2020-Dec-17.0) TDB
Reference: JPL 24 (heliocentric ecliptic J2000)
Element | Value | Uncertainty (1-sigma) | Units |
e | .1031362300479736 | 4.2524e-08 | |
a | 2.887078879420828 | 1.6598e-08 | au |
q | 2.589316447946236 | 1.2172e-07 | au |
i | 1.627222788652821 | 4.017e-06 | deg |
node | 200.9032004056516 | 0.00014592 | deg |
peri | 192.5666676759662 | 0.00014732 | deg |
M | 104.715552648973 | 1.9292e-05 | deg |
tp | 2458679.311181733280 (2019-Jul-14.81118173) | 9.5857e-05 | TDB |
period | 1791.787082526174 4.91 | 1.5451e-05 4.23e-08 | d yr |
n | .2009167291754606 | 1.7326e-09 | deg/d |
Q | 3.184841310895421 | 1.8309e-08 | au |
|
| | Orbit Determination Parameters
Additional Information
|